Talkeetna, AK

9:30 AM AKST on December 12, 2017 (GMT -0900)
Talkeetna

Weather History for PATK - January, 2013

Change the Weather History Date:

Friday, January 25, 2013

  Actual Average Record
Temperature  
Mean Temperature 14 °F -  
Max Temperature 21 °F 19 °F 46 °F (2014)
Min Temperature 1 °F -1 °F -45 °F (1973)
Degree Days  
Heating Degree Days 51    
Moisture  
Dew Point 2 °F    
Average Humidity 62    
Maximum Humidity 100    
Minimum Humidity 32    
Precipitation  
Precipitation 0.08 in - - ()
Snow  
Snow 0.00 in - - ()
Snow Depth 15.00 in    
Sea Level Pressure  
Sea Level Pressure 29.49 in    
Wind  
Wind Speed 5 mph (North)    
Max Wind Speed 15 mph    
Max Gust Speed 29 mph    
Visibility 9 miles    
Events Snow    
Averages and records for this station are not official NWS values.
T = Trace of Precipitation, MM = Missing Value Source: NWS Daily Summary

Daily Weather History Graph

Daily Weather History Graph

Search for Another Location

Airport or City:

Trip Planner

Search our weather history database for the weather conditions in past years. The results will help you decide how hot, cold, wet, or windy it might be!

Date:

Astronomy

Jan. 25, 2013 Rise Set
Actual Time 9:44 AM AKST 4:41 PM AKST
Civil Twilight 8:49 AM AKST 5:36 PM AKST
Nautical Twilight 7:53 AM AKST 6:33 PM AKST
Astronomical Twilight 7:00 AM AKST 7:26 PM AKST
Moon 3:51 PM AKST (1/25) 8:31 AM AKST (1/25)
Length of Visible Light 8h 46m
Length of Day
6h 57m
Waxing Gibbous, 98% of the Moon is Illuminated
Jan 25
Waxing Gibbous
Jan 26
Full
Feb 3
Last Quarter
Feb 9
New
Feb 17
First Quarter

Hourly Weather History & Observations

Time (AKST) Temp. Windchill Dew Point Humidity Pressure Visibility Wind Dir Wind Speed Gust Speed Precip Events Conditions
12:05 AM 21.2 °F 13.6 °F 21.2 °F 100% 29.34 in 3.0 mi WNW 5.8 mph - 0.01 in Snow Light Snow
12:12 AM 21.2 °F 14.9 °F 17.6 °F 86% 29.35 in 1.8 mi NW 4.6 mph - 0.02 in Snow Light Snow
12:53 AM 19.0 °F - 17.1 °F 92% 29.37 in 0.8 mi Calm Calm - 0.05 in Snow Light Snow
1:15 AM 19.4 °F - 15.8 °F 86% 29.35 in 1.0 mi Calm Calm - 0.02 in Snow Light Snow
1:42 AM 19.4 °F - 17.6 °F 93% 29.35 in 3.0 mi Calm Calm - 0.03 in Snow Light Snow
1:53 AM 19.0 °F - 17.1 °F 92% 29.38 in 9.0 mi Calm Calm - 0.03 in   Overcast
2:26 AM 19.4 °F - 15.8 °F 86% 29.36 in 10.0 mi Calm Calm - N/A   Overcast
3:53 AM 15.1 °F 9.4 °F 12.9 °F 91% 29.38 in 10.0 mi SW 3.5 mph - N/A   Scattered Clouds
4:30 AM 10.4 °F - 8.6 °F 92% 29.35 in 10.0 mi Calm Calm - N/A   Mostly Cloudy
4:53 AM 12.9 °F - 10.9 °F 92% 29.38 in 10.0 mi Calm Calm - N/A   Overcast
5:14 AM 12.2 °F - 8.6 °F 85% 29.35 in 10.0 mi Calm Calm - N/A   Overcast
5:53 AM 12.9 °F - 10.9 °F 92% 29.39 in 10.0 mi Calm Calm - N/A   Overcast
6:53 AM 10.0 °F - 8.1 °F 92% 29.41 in 10.0 mi Calm Calm - N/A   Overcast
7:53 AM 18.0 °F 7.7 °F 3.9 °F 54% 29.43 in 10.0 mi North 8.1 mph - N/A   Clear
8:53 AM 16.0 °F 5.3 °F 1.0 °F 52% 29.47 in 10.0 mi NNE 8.1 mph - N/A   Clear
9:53 AM 16.0 °F 1.7 °F -2.0 °F 45% 29.49 in 10.0 mi North 13.8 mph 21.9 mph N/A   Clear
10:53 AM 15.1 °F 4.2 °F -4.0 °F 43% 29.52 in 10.0 mi NNE 8.1 mph 20.7 mph N/A   Clear
11:53 AM 16.0 °F 3.6 °F -4.0 °F 41% 29.54 in 10.0 mi NNE 10.4 mph 19.6 mph N/A   Clear
12:53 PM 15.1 °F -0.1 °F -6.0 °F 39% 29.56 in 10.0 mi NNE 15.0 mph 25.3 mph 0.00 in   Partly Cloudy
1:53 PM 15.1 °F 0.5 °F -6.0 °F 39% 29.57 in 10.0 mi NNE 13.8 mph 28.8 mph N/A   Clear
2:53 PM 14.0 °F -0.2 °F -9.9 °F 34% 29.58 in 10.0 mi NNE 12.7 mph 23.0 mph N/A   Clear
3:53 PM 12.9 °F -0.9 °F -11.9 °F 32% 29.60 in 10.0 mi NNE 11.5 mph 21.9 mph N/A   Clear
4:53 PM 10.9 °F 1.4 °F -11.0 °F 37% 29.62 in 10.0 mi NNE 5.8 mph - N/A   Clear
5:53 PM 9.0 °F -0.9 °F -13.0 °F 36% 29.62 in 10.0 mi North 5.8 mph - N/A   Clear
6:53 PM 8.1 °F -3.2 °F -14.1 °F 36% 29.62 in 10.0 mi North 6.9 mph - N/A   Clear
7:53 PM 8.1 °F -3.2 °F -14.1 °F 36% 29.65 in 10.0 mi North 6.9 mph - N/A   Clear
8:53 PM 8.1 °F -6.2 °F -13.0 °F 38% 29.66 in 10.0 mi North 10.4 mph 17.3 mph N/A   Clear
9:53 PM 7.0 °F -7.5 °F -14.1 °F 38% 29.65 in 10.0 mi North 10.4 mph 19.6 mph N/A   Clear
10:53 PM 7.0 °F -7.5 °F -15.0 °F 36% 29.65 in 10.0 mi North 10.4 mph 17.3 mph N/A   Clear
11:53 PM 1.9 °F -9.2 °F -15.0 °F 45% 29.68 in 10.0 mi NW 5.8 mph - N/A   Clear